DateTime,DeltaTime,Roll,TargetAngle,Position,Power
2022-05-23 14:37:09.135,0,-3.44,-21.12,3,90
2022-05-23 14:37:09.249,0.114000588655472,-3.71,-14.12,2,54.04
2022-05-23 14:37:09.364,0.229007005691528,-1.9,1.26,2,-18.72
2022-05-23 14:37:09.479,0.344003364443779,1,16.12,2,-71.52
2022-05-23 14:37:09.593,0.458003953099251,3.54,23.51,3,-89.06
2022-05-23 14:37:09.708,0.573000311851501,4.26,18.03,2,-47.02
2022-05-23 14:37:09.823,0.688006728887558,2.68,2.48,2,17.29
2022-05-23 14:37:09.937,0.80200731754303,-0.25,-13.68,2,79.01
2022-05-23 14:37:10.052,0.91700367629528,-2.94,-22,3,90
2022-05-23 14:37:10.166,1.03100426495075,-4.05,-19.04,2,78.81
2022-05-23 14:37:10.281,1.146000623703,-2.9,-5.09,3,6.58
2022-05-23 14:37:10.396,1.26100704073906,-0.09,11.92,2,-53.24
2022-05-23 14:37:10.510,1.37500762939453,2.93,23.46,2,-90
2022-05-23 14:37:10.625,1.49000398814678,4.44,22.11,3,-72.49
2022-05-23 14:37:10.740,1.60500034689903,3.55,8.53,2,-1.32
2022-05-23 14:37:10.855,1.72000676393509,0.9,-8.42,2,58.88
2022-05-23 14:37:10.970,1.83500312268734,-2.12,-20.64,2,90
2022-05-23 14:37:11.084,1.94900371134281,-3.98,-22,2,90
2022-05-23 14:37:11.199,2.06400007009506,-3.57,-10.75,3,32.31
2022-05-23 14:37:11.314,2.17900648713112,-1.15,6.53,2,-33.18
2022-05-23 14:37:11.428,2.29300707578659,2.02,20.91,3,-89.13
2022-05-23 14:37:11.543,2.40800343453884,4.19,24.17,3,-81.12
2022-05-23 14:37:11.657,2.52200402319431,4.09,13.85,3,-26.55
2022-05-23 14:37:11.773,2.63800621032715,1.85,-3.27,3,44.58
2022-05-23 14:37:11.887,2.75200679898262,-1.25,-17.96,2,90
2022-05-23 14:37:12.001,2.86600738763809,-3.62,-22,3,90
2022-05-23 14:37:12.116,2.98100374639034,-3.97,-15.46,3,60.87
2022-05-23 14:37:12.231,3.09600010514259,-2.06,1.11,3,-14.72
2022-05-23 14:37:12.346,3.21100652217865,1.01,16.94,3,-72.03
2022-05-23 14:37:12.460,3.32500711083412,3.73,24.9,2,-90
2022-05-23 14:37:12.575,3.44000346958637,4.41,18.43,2,-53.48
2022-05-23 14:37:12.689,3.55400405824184,2.69,1.9,2,21.99
2022-05-23 14:37:12.805,3.67000624537468,-0.27,-13.85,2,79.16
2022-05-23 14:37:12.920,3.78500260412693,-3.06,-22,2,90
2022-05-23 14:37:13.033,3.89800742268562,-4.16,-19.36,2,75.41
2022-05-23 14:37:13.148,4.01300378143787,-2.94,-4.98,2,6.92
2022-05-23 14:37:13.263,4.12800014019012,-0.11,11.95,2,-58.26
2022-05-23 14:37:13.378,4.24300655722618,2.87,23.05,2,-90
2022-05-23 14:37:13.492,4.35700714588165,4.28,21.16,2,-68.24
2022-05-23 14:37:13.607,4.4720035046339,3.25,6.9,3,0.59
2022-05-23 14:37:13.722,4.58699986338615,0.56,-9.8,3,70.01
2022-05-23 14:37:13.836,4.70100045204163,-2.35,-20.92,3,90
2022-05-23 14:37:13.951,4.81600686907768,-4.04,-21.53,2,90
2022-05-23 14:37:14.065,4.93000745773315,-3.52,-10.01,3,27.95
2022-05-23 14:37:14.180,5.0450038164854,-1.13,6.46,2,-31.91
2022-05-23 14:37:14.291,5.15600703656673,1.92,20.05,3,-84.95
2022-05-23 14:37:14.405,5.27000762522221,3.97,22.87,2,-75.72
2022-05-23 14:37:14.520,5.38500398397446,3.77,12.27,2,-25.33
2022-05-23 14:37:14.635,5.50000034272671,1.52,-4.47,2,44.84
2022-05-23 14:37:14.750,5.61500675976276,-1.44,-17.98,3,90
2022-05-23 14:37:14.865,5.73000311851501,-3.68,-22,3,90
2022-05-23 14:37:14.979,5.84400370717049,-3.96,-15.03,3,57.45
2022-05-23 14:37:15.094,5.95900006592274,-2.06,1.08,2,-13.99
2022-05-23 14:37:15.208,6.07300065457821,0.98,16.71,2,-75.94
2022-05-23 14:37:15.323,6.18800707161427,3.6,24.05,2,-90
2022-05-23 14:37:15.438,6.30300343036652,4.27,17.82,2,-50.25
2022-05-23 14:37:15.552,6.41700401902199,2.59,1.76,2,21.89
2022-05-23 14:37:15.668,6.53300620615482,-0.25,-13.31,2,76.26
2022-05-23 14:37:15.782,6.6470067948103,-2.97,-22,2,90
2022-05-23 14:37:15.897,6.76200315356255,-4.07,-19.04,2,73.81
2022-05-23 14:37:16.011,6.87600374221802,-2.9,-5.01,3,7.49
2022-05-23 14:37:16.125,6.99000433087349,-0.14,11.52,2,-51.14
2022-05-23 14:37:16.240,7.10500068962574,2.78,22.46,2,-90
2022-05-23 14:37:16.355,7.2200071066618,4.22,21.1,2,-68.72
2022-05-23 14:37:16.470,7.33500346541405,3.34,7.84,3,-4.19
2022-05-23 14:37:16.584,7.44900405406952,0.79,-8.38,2,64.02
2022-05-23 14:37:16.700,7.56500624120235,-2.06,-19.65,2,90
2022-05-23 14:37:16.814,7.67900682985783,-3.84,-21.21,3,87.71
2022-05-23 14:37:16.929,7.79400318861008,-3.5,-10.8,2,38.63
2022-05-23 14:37:17.042,7.90700800716877,-1.24,5.53,2,-34.44
2022-05-23 14:37:17.157,8.02200436592102,1.7,18.78,2,-78.37
2022-05-23 14:37:17.273,8.13800655305386,3.82,22.6,2,-81.03
2022-05-23 14:37:17.387,8.25200714170933,3.82,13.38,2,-29.95
2022-05-23 14:37:17.502,8.36700350046158,1.79,-2.61,3,36.93
2022-05-23 14:37:17.616,8.48100408911705,-1.11,-16.5,3,90
2022-05-23 14:37:17.731,8.5960004478693,-3.4,-21.95,2,90
2022-05-23 14:37:17.847,8.71200263500214,-3.88,-15.67,3,55.7
2022-05-23 14:37:17.961,8.82600322365761,-2.2,-0.39,2,-6.19
2022-05-23 14:37:18.074,8.9390080422163,0.66,14.79,2,-68.12
2022-05-23 14:37:18.190,9.05500017106533,3.28,22.93,2,-87.94
2022-05-23 14:37:18.304,9.1690007597208,4.13,18.2,3,-53.59
2022-05-23 14:37:18.420,9.28500294685364,2.7,3.2,2,20.19
2022-05-23 14:37:18.534,9.39900353550911,-0.06,-12.24,2,71.45
2022-05-23 14:37:18.648,9.51300412416458,-2.81,-21.89,2,90
2022-05-23 14:37:18.765,9.6300020813942,-4.11,-20,3,78.75
2022-05-23 14:37:18.878,9.74300689995289,-3.19,-7.16,2,21.99
2022-05-23 14:37:18.992,9.85700748860836,-0.55,9.56,3,-50.19
2022-05-23 14:37:19.106,9.97100807726383,2.43,21.57,2,-82.96
2022-05-23 14:37:19.222,10.0870002061129,4.11,21.68,2,-74.1
2022-05-23 14:37:19.337,10.2020066231489,3.5,9.57,3,-12.09
2022-05-23 14:37:19.451,10.3160072118044,1.07,-6.88,3,58.65
2022-05-23 14:37:19.562,10.4270003736019,-1.87,-19.4,2,90
2022-05-23 14:37:19.677,10.542006790638,-3.87,-22,2,90
2022-05-23 14:37:19.791,10.6560073792934,-3.81,-13.08,3,43.99
2022-05-23 14:37:19.905,10.7700079679489,-1.63,3.79,3,-22.34
2022-05-23 14:37:20.021,10.8860000967979,1.43,18.4,3,-74.66
2022-05-23 14:37:20.136,11.001006513834,3.79,23.54,2,-82.57
2022-05-23 14:37:20.250,11.1150071024895,4.08,15.56,2,-40.94
2022-05-23 14:37:20.365,11.2300034612417,2.19,-0.58,3,29.4
2022-05-23 14:37:20.480,11.344999819994,-0.71,-15.18,2,86.53
2022-05-23 14:37:20.594,11.4590004086494,-3.27,-22,2,90
2022-05-23 14:37:20.708,11.5730009973049,-4.06,-17.68,2,66.98
2022-05-23 14:37:20.824,11.6890031844378,-2.63,-2.94,2,-1.05
2022-05-23 14:37:20.938,11.8030037730932,0.26,13.55,2,-63.78
2022-05-23 14:37:21.053,11.9180001318455,3.09,23.13,3,-90
2022-05-23 14:37:21.167,12.0320007205009,4.31,20.46,3,-59.64
2022-05-23 14:37:21.282,12.147007137537,3.2,6.32,3,6.27
2022-05-23 14:37:21.397,12.2620034962893,0.54,-9.75,2,67.8
2022-05-23 14:37:21.512,12.3769998550415,-2.35,-20.84,2,90
2022-05-23 14:37:21.626,12.491000443697,-4.03,-21.43,3,87.26
2022-05-23 14:37:21.741,12.606006860733,-3.47,-9.74,2,33.02
2022-05-23 14:37:21.855,12.7200074493885,-1.02,7.15,2,-41.27
2022-05-23 14:37:21.970,12.8350038081408,2.08,20.83,3,-86.73
2022-05-23 14:37:22.085,12.950000166893,4.17,23.7,3,-78.89
2022-05-23 14:37:22.200,13.0650065839291,3.96,12.96,2,-22.71
2022-05-23 14:37:22.314,13.1790071725845,1.66,-4.25,3,43.41
2022-05-23 14:37:22.429,13.2940035313368,-1.42,-18.39,2,90
2022-05-23 14:37:22.545,13.4100057184696,-3.76,-22,3,90
2022-05-23 14:37:22.659,13.5240063071251,-4.1,-15.86,2,62.87
2022-05-23 14:37:22.773,13.6380068957806,-2.25,0.23,3,-15.86
2022-05-23 14:37:22.888,13.7530032545328,0.78,15.99,2,-67.11
2022-05-23 14:37:23.002,13.8670038431883,3.48,23.96,3,-90
2022-05-23 14:37:23.117,13.9820002019405,4.23,18.08,3,-46.65
2022-05-23 14:37:23.232,14.0970066189766,2.62,2.17,3,23.87
2022-05-23 14:37:23.347,14.2120029777288,-0.29,-13.74,3,82.73
2022-05-23 14:37:23.461,14.3260035663843,-3.06,-22,2,90
2022-05-23 14:37:23.576,14.4409999251366,-4.24,-19.99,2,77.22
2022-05-23 14:37:23.690,14.555000513792,-3.18,-6.49,2,13.66
2022-05-23 14:37:23.805,14.6700069308281,-0.38,10.86,2,-54.67
2022-05-23 14:37:23.920,14.7850032895803,2.62,22.25,2,-89.67
2022-05-23 14:37:24.035,14.8999996483326,4.17,21.41,2,-70.54
2022-05-23 14:37:24.149,15.0140002369881,3.39,8.47,3,-6.96
2022-05-23 14:37:24.264,15.1290066540241,0.87,-7.99,2,62.88
2022-05-23 14:37:24.378,15.2430072426796,-2.06,-19.99,2,90
2022-05-23 14:37:24.489,15.3540004044771,-4,-22,2,90
2022-05-23 14:37:24.605,15.47000259161,-3.81,-12.51,3,41.13
2022-05-23 14:37:24.718,15.5830074101686,-1.57,4.29,2,-24.1
2022-05-23 14:37:24.833,15.6980037689209,1.55,19.03,3,-82.29
2022-05-23 14:37:24.947,15.8120043575764,3.91,23.97,3,-82.55
2022-05-23 14:37:25.063,15.9280065447092,4.11,15.25,2,-33.83
2022-05-23 14:37:25.176,16.0410013049841,2.1,-1.44,2,32.14
2022-05-23 14:37:25.292,16.1570034921169,-0.96,-16.72,3,88.33
2022-05-23 14:37:25.406,16.2710040807724,-3.55,-22,3,90
2022-05-23 14:37:25.521,16.3860004395247,-4.3,-18.32,3,73.88
2022-05-23 14:37:25.635,16.5000010281801,-2.7,-2.47,2,-0.56
2022-05-23 14:37:25.751,16.616003215313,0.36,14.61,3,-69.75
2022-05-23 14:37:25.865,16.7300038039684,3.3,24.39,3,-90
2022-05-23 14:37:25.980,16.8450001627207,4.51,21.06,3,-62.3
2022-05-23 14:37:26.095,16.9600065797567,3.21,5.58,2,10.76
2022-05-23 14:37:26.209,17.0740071684122,0.35,-11.3,2,69.64
2022-05-23 14:37:26.324,17.1890035271645,-2.67,-22,3,90
2022-05-23 14:37:26.438,17.3030041158199,-4.35,-22,2,90
2022-05-23 14:37:26.554,17.4190063029528,-3.69,-10.03,2,27.44
2022-05-23 14:37:26.668,17.5330068916082,-1.1,7.45,3,-41.92
2022-05-23 14:37:26.783,17.6480032503605,2.1,21.32,3,-83.87
2022-05-23 14:37:26.897,17.762003839016,4.18,23.68,3,-79.42
2022-05-23 14:37:27.012,17.8770001977682,3.95,12.85,2,-22.2
2022-05-23 14:37:27.126,17.9910007864237,1.58,-4.83,3,46.14
2022-05-23 14:37:27.241,18.1060072034597,-1.49,-18.61,3,90
2022-05-23 14:37:27.357,18.2220093905926,-3.86,-22,2,90
2022-05-23 14:37:27.471,18.3359999209642,-4.18,-16.03,2,57.46
2022-05-23 14:37:27.585,18.4500005096197,-2.3,0.14,2,-14.3
2022-05-23 14:37:27.700,18.5650069266558,0.78,16.18,2,-73.17
2022-05-23 14:37:27.815,18.680003285408,3.49,24.08,2,-90
2022-05-23 14:37:27.930,18.7949996441603,4.22,17.96,2,-50.93
2022-05-23 14:37:28.045,18.9100060611963,2.57,1.82,2,21.82
2022-05-23 14:37:28.159,19.0240066498518,-0.35,-13.96,2,79.6
2022-05-23 14:37:28.272,19.1370014101267,-3.08,-22,3,90
2022-05-23 14:37:28.389,19.2540094256401,-4.2,-19.61,2,81.64
2022-05-23 14:37:28.503,19.3679999560118,-3.04,-5.6,2,8.42
2022-05-23 14:37:28.617,19.4820005446672,-0.27,11.2,3,-55.27
2022-05-23 14:37:28.732,19.5970069617033,2.7,22.37,3,-84.8
2022-05-23 14:37:28.847,19.7120033204556,4.21,21.35,2,-66.4
2022-05-23 14:37:28.962,19.8269996792078,3.34,7.93,2,-5.63
2022-05-23 14:37:29.076,19.9410002678633,0.81,-8.25,2,58.51
2022-05-23 14:37:29.190,20.0550008565187,-2.1,-20.04,2,90
2022-05-23 14:37:29.305,20.1700072735548,-3.91,-21.61,2,89.22
2022-05-23 14:37:29.420,20.2850036323071,-3.61,-11.29,3,35.53
2022-05-23 14:37:29.535,20.3999999910593,-1.27,5.73,8,-29.85
2022-05-23 14:37:29.650,20.5150064080954,1.83,19.92,3,-55.08
2022-05-23 14:37:29.760,20.6250037997961,4.04,23.83,2,-88.57
2022-05-23 14:37:29.875,20.7400001585484,4.05,14.18,3,-33.64
2022-05-23 14:37:29.989,20.8540007472038,1.9,-2.71,2,43.38
2022-05-23 14:37:30.105,20.9700029343367,-1.13,-17.23,3,88.1
2022-05-23 14:37:30.219,21.0840035229921,-3.54,-22,2,90
2022-05-23 14:37:30.334,21.1989998817444,-4.03,-16.19,2,58.25
2022-05-23 14:37:30.448,21.3130004703999,-2.24,-0.02,3,-13.71
2022-05-23 14:37:30.563,21.4280068874359,0.8,16.04,2,-67.67
2022-05-23 14:37:30.678,21.5430032461882,3.54,24.38,2,-90
2022-05-23 14:37:30.792,21.6570038348436,4.44,19.43,3,-57.85
2022-05-23 14:37:30.907,21.7720001935959,2.91,3.55,2,20.06
2022-05-23 14:37:31.022,21.8870066106319,-0,-12.73,2,74.33
2022-05-23 14:37:31.136,22.0010071992874,-2.85,-22,2,90
2022-05-23 14:37:31.262,22.1270073205233,-4.18,-20.46,3,80.9
2022-05-23 14:37:31.365,22.2300041466951,-3.2,-6.9,2,20.12
2022-05-23 14:37:31.481,22.346006333828,-0.44,10.55,2,-54.81
2022-05-23 14:37:31.595,22.4600069224834,2.61,22.42,3,-90
2022-05-23 14:37:31.710,22.5750032812357,4.31,22.53,2,-70.9
2022-05-23 14:37:31.825,22.6899996399879,3.65,9.88,3,-13.82
2022-05-23 14:37:31.939,22.8040002286434,1.1,-7.24,2,60.82
2022-05-23 14:37:32.054,22.9190066456795,-1.89,-19.69,7,90
2022-05-23 14:37:32.168,23.0330072343349,-3.9,-22,2,90
2022-05-23 14:37:32.283,23.1480035930872,-3.77,-12.61,3,35.09
2022-05-23 14:37:32.399,23.26400578022,-1.58,4,2,-22.78
2022-05-23 14:37:32.512,23.3770005404949,1.54,19.03,3,-82.61
2022-05-23 14:37:32.627,23.492006957531,3.9,23.93,2,-82.38
2022-05-23 14:37:32.742,23.6070033162832,4.12,15.38,2,-39.5
2022-05-23 14:37:32.856,23.7210039049387,2.14,-1.17,3,32.13
2022-05-23 14:37:32.971,23.8360002636909,-0.86,-16.12,3,90
2022-05-23 14:37:33.086,23.951006680727,-3.37,-22,2,90
2022-05-23 14:37:33.201,24.0660030394793,-4.07,-17.33,3,63.94
2022-05-23 14:37:33.315,24.1800036281347,-2.51,-1.97,2,-0.47
2022-05-23 14:37:33.430,24.294999986887,0.46,14.55,2,-68.82
2022-05-23 14:37:33.545,24.410006403923,3.28,23.82,3,-90
2022-05-23 14:37:33.660,24.5250027626753,4.33,19.74,3,-55.14
2022-05-23 14:37:33.774,24.6390033513308,3.01,4.77,2,13.05
2022-05-23 14:37:33.889,24.753999710083,0.21,-11.49,2,69.63
2022-05-23 14:37:34.004,24.8690061271191,-2.63,-21.61,2,90
2022-05-23 14:37:34.118,24.9830067157745,-4.04,-20.32,3,80.69
2022-05-23 14:37:34.233,25.0980030745268,-3.19,-7.44,2,22.97
2022-05-23 14:37:34.348,25.2130094915628,-0.51,9.88,2,-52.11
2022-05-23 14:37:34.462,25.3270000219345,2.55,22.34,2,-90
2022-05-23 14:37:34.577,25.4420064389706,4.33,22.9,2,-77.89
2022-05-23 14:37:34.691,25.556007027626,3.75,10.58,3,-15.54
2022-05-23 14:37:34.806,25.6710033863783,1.28,-6.28,2,56.88
2022-05-23 14:37:34.917,25.7820066064596,-1.7,-18.98,2,90
2022-05-23 14:37:35.031,25.8960071951151,-3.76,-22,2,90
2022-05-23 14:37:35.147,26.0120093822479,-3.71,-12.74,3,42.31
2022-05-23 14:37:35.260,26.1250041425228,-1.52,4.19,3,-23.9
2022-05-23 14:37:35.375,26.2400005012751,1.61,19.31,2,-78.79
2022-05-23 14:37:35.489,26.3540010899305,3.99,24.34,2,-90
2022-05-23 14:37:35.605,26.4700032770634,4.26,16.08,3,-41.16
2022-05-23 14:37:35.719,26.5840038657188,2.25,-0.86,3,36.45
2022-05-23 14:37:35.834,26.6990002244711,-0.79,-16.06,3,89.32
2022-05-23 14:37:35.949,26.8140066415071,-3.35,-22,2,90
2022-05-23 14:37:36.064,26.9290030002594,-4.1,-17.62,2,65.39
2022-05-23 14:37:36.178,27.0430035889149,-2.47,-1.52,2,-8.11
2022-05-23 14:37:36.292,27.1570041775703,0.57,15.3,3,-70.8
2022-05-23 14:37:36.408,27.2730063647032,3.46,24.73,2,-90
2022-05-23 14:37:36.522,27.3870069533587,4.61,21.12,3,-67.16
2022-05-23 14:37:36.637,27.5020033121109,3.24,5.36,2,13.24
2022-05-23 14:37:36.752,27.6169996708632,0.27,-12,3,72.9
2022-05-23 14:37:36.866,27.7310002595186,-2.81,-22,2,90
2022-05-23 14:37:36.981,27.8460066765547,-4.4,-22,3,87.29
2022-05-23 14:37:37.096,27.9610030353069,-3.57,-8.93,2,28.22
2022-05-23 14:37:37.210,28.0750036239624,-0.77,9.59,2,-52.49
2022-05-23 14:37:37.325,28.1899999827147,2.59,23.68,2,-90
2022-05-23 14:37:37.440,28.3050063997507,4.64,25.22,2,-87.73
2022-05-23 14:37:37.554,28.4190069884062,4.21,12.85,3,-23.86
2022-05-23 14:37:37.669,28.5340033471584,1.58,-5.96,2,58.03
2022-05-23 14:37:37.783,28.6480039358139,-1.76,-20.75,2,90
2022-05-23 14:37:37.899,28.7640061229467,-4.23,-22,2,90
2022-05-23 14:37:38.013,28.8780067116022,-4.47,-16.7,2,62.12
2022-05-23 14:37:38.128,28.9930030703545,-2.26,1.7,3,-22.99
2022-05-23 14:37:38.243,29.1080094873905,1.23,19.57,3,-83.25
2022-05-23 14:37:38.356,29.2210042476654,4.2,27.63,3,-90
2022-05-23 14:37:38.472,29.3370064347982,4.96,20.72,2,-56.37
2022-05-23 14:37:38.586,29.4510070234537,3.12,2.85,2,18.93
2022-05-23 14:37:38.701,29.566003382206,-0.18,-14.99,2,86.03
2022-05-23 14:37:38.816,29.6809997409582,-3.32,-22,2,90
2022-05-23 14:37:38.930,29.7950003296137,-4.7,-22,3,88.6
2022-05-23 14:37:39.045,29.9100067466497,-3.48,-6.87,2,17.93
2022-05-23 14:37:39.159,30.0240073353052,-0.36,12.37,2,-63.89
2022-05-23 14:37:39.275,30.140009522438,3.04,25.49,3,-90
2022-05-23 14:37:39.390,30.2550058811903,4.95,25.66,2,-82.55
2022-05-23 14:37:39.504,30.3690064698458,4.25,11.82,3,-19.46
2022-05-23 14:37:39.618,30.4830070585012,1.47,-7.01,2,62.01
